Strona główna
METAR-TAF:

METAR-TAF

Lotnisko :

Araxá, Minas Gerais, Brazylia

Szerokość geograficzna: 19-33-38S, Długość geograficzna: 046-57-56W, wysokość: 999 m

Aktualna obserwacja pogody

Raport powstał 52 minut temu, godzina 21:00 UTC
Wiatr 5 kt od południowy zachód, zmienny między południe i zachodnio-południowy zachód
Temperatura 25°C
Wilgotność 69%
Ciśnienie 1016 hPa
Widzialność 10 km lub więcej
Brak chmur poniżej 1500 m i brak chmur cumulonimbus

METAR: SBAX 042100Z AUTO 22005KT 190V250 CAVOK 25/19 Q1016

czas: 18:52 (21:52 UTC)


TAF: brakujący

Obserwacja i prognoza pogody dla ponad 4000 lotnisk (raport METAR i TAF).

Dostępne stacje oznaczono żółtymi i czerwonymi punktami na mapie.

Najedź kursorem aby zobaczyć nazwę stacji.

Kliknij aby zobaczyć obserwacje i prognozy pogody.

Aby zmienić mapę: kliknij na zielony przycisk z czarnym krzyżykiem, aby powiększyć; na zielony przycisk z myślnikiem, aby pomniejszyć; na zielone strzałki, aby przejść do map sąsiednich.


METAR-TAF: